(305398) = 2008 CD77

Discovered at Catalina on 2008-02-06 by CSS.

Orbit

Orbit type: Main Belt

Note: WebGL enabled browser required.

epoch2024-03-31.0
epoch JD2460400.5
perihelion date2023-07-15.57423
perihelion JD2460141.07423
argument of perihelion (°)5.58845
ascending node (°)125.95779
inclination (°)9.73089
eccentricity0.0795798
perihelion distance (AU)2.7603744
Tisserand w.r.t. Jupiter3.2
ΔV w.r.t. Earth (km/sec)10.8
semimajor axis (AU)2.9990374
mean anomaly (°)49.23162
mean daily motion (°/day)0.18977150
aphelion distance (AU)3.238
period (years)5.19
P-vector [x]-0.66209017
P-vector [y]0.68087013
P-vector [z]0.31313332
Q-vector [x]-0.73683010
Q-vector [y]-0.66769519
Q-vector [z]-0.10613455
absolute magnitude15.6
phase slope0.15
uncertainty0
referenceMPEC 2024-F62
observations used488
oppositions19
arc length (days)11321
first opposition used1993
last opposition used2024
residual rms (arc-secs)0.69
perturbers coarse indicatorM-v
perturbers precise indicator003Ek
first observation date used1993-03-22.0
last observation date used2024-03-20.0
computer nameMPCLINUX
JD of orbit computation2456819.615465
perihelion JD uncertainty (days)2.0228E-04
argument of perihelion uncertainty (°)5.0924E-05
ascending node uncertainty (°)2.9869E-05
inclination uncertainty (°)4.4020E-06
eccentricity uncertainty 4.8766E-08
perihelion distance uncertainty (AU)1.4481E-07
Minimum Orbit Intersection Distances (in AU)
for orbit epoch: 2460400.5, reference: E2024-GH2
Mercury2.41688
Venus2.04239
Earth1.77572
Mars1.10354
Jupiter1.80369
Saturn6.22023
Uranus15.6531
Neptune26.7604

Observations

488 total observations over interval: 1993 03 22.42862 – 2024 03 20.216878
These data are available for download (format description).

Date (UT) J2000 RA J2000 Dec Magn Location Ref
1993 03 22.42862 14 03 58.55 +01 56 14.1 20.2 V 691 – Steward Observatory, Kitt Peak-Spacewatch MPS 240877
1993 03 22.45701 14 03 57.68 +01 56 25.6   691 – Steward Observatory, Kitt Peak-Spacewatch MPS 240877
1993 03 22.48614 14 03 56.78 +01 56 36.5   691 – Steward Observatory, Kitt Peak-Spacewatch MPS 240877
2001 12 11.22546 04 09 59.99 +08 22 13.1   704 – Lincoln Laboratory ETS, New Mexico MPS 407635
2001 12 11.24068 04 09 59.31 +08 22 12.8   704 – Lincoln Laboratory ETS, New Mexico MPS 407635
2001 12 11.25592 04 09 58.50 +08 22 13.8   704 – Lincoln Laboratory ETS, New Mexico MPS 407635
2001 12 11.27116 04 09 57.68 +08 22 14.2   704 – Lincoln Laboratory ETS, New Mexico MPS 407635
2001 12 11.28639 04 09 56.92 +08 22 13.5   704 – Lincoln Laboratory ETS, New Mexico MPS 407635
2003 03 10.38529 11 27 10.78 +14 24 45.4 19.4   644 – Palomar Mountain/NEAT MPS 254586
2003 03 10.44943 11 27 07.82 +14 25 13.3 19.3   644 – Palomar Mountain/NEAT MPS 254586
2003 03 10.51217 11 27 04.95 +14 25 40.4 19.7   644 – Palomar Mountain/NEAT MPS 254586
2003 03 20.13288 11 20 01.05 +15 29 37.5 20.3   644 – Palomar Mountain/NEAT MPS 254586
2003 03 20.19855 11 19 58.20 +15 30 01.3 20.1   644 – Palomar Mountain/NEAT MPS 254586
2003 03 20.26681 11 19 55.20 +15 30 25.8 19.5   644 – Palomar Mountain/NEAT MPS 254586
2003 03 25.25208 11 16 30.01 +15 57 37.0 19.8   644 – Palomar Mountain/NEAT MPS 240877
2003 03 25.28390 11 16 28.68 +15 57 46.4 19.5   644 – Palomar Mountain/NEAT MPS 240877
2003 03 25.32205 11 16 27.13 +15 57 58.1 19.7   644 – Palomar Mountain/NEAT MPS 240877
2003 04 06.19689 11 09 41.53 +16 43 12.0 19.9 R 699 – Lowell Observatory-LONEOS MPS 240877
2003 04 06.21183 11 09 41.06 +16 43 14.7   699 – Lowell Observatory-LONEOS MPS 240877
2003 04 06.22686 11 09 40.59 +16 43 17.6   699 – Lowell Observatory-LONEOS MPS 240877
2003 04 06.24190 11 09 40.18 +16 43 20.3   699 – Lowell Observatory-LONEOS MPS 240877
2005 08 04.36581 22 19 49.07 -15 16 53.7 20.3   644 – Palomar Mountain/NEAT MPS 240877
2005 08 04.37725 22 19 48.66 -15 16 58.4 19.9   644 – Palomar Mountain/NEAT MPS 240877
2005 08 04.39485 22 19 47.95 -15 17 04.8 20.2   644 – Palomar Mountain/NEAT MPS 240877
2006 10 22.37964 03 30 03.34 +04 24 09.3 20.5 V 703 – Catalina Sky Survey MPS 240877
2006 10 22.38735 03 30 03.16 +04 24 06.9 20.0 V 703 – Catalina Sky Survey MPS 240877
2006 10 22.39510 03 30 02.73 +04 24 05.5 19.8 V 703 – Catalina Sky Survey MPS 240877
2006 10 22.40284 03 30 02.52 +04 24 04.2 20.3 V 703 – Catalina Sky Survey MPS 240877
2006 11 13.25221 03 13 23.70 +03 05 48.8 19.4 V 703 – Catalina Sky Survey MPS 240877
2006 11 13.25911 03 13 23.41 +03 05 46.5 20.0 V 703 – Catalina Sky Survey MPS 240877
2006 11 13.26601 03 13 22.94 +03 05 45.6 19.4 V 703 – Catalina Sky Survey MPS 240877
2006 11 13.27287 03 13 22.65 +03 05 45.5 20.0 V 703 – Catalina Sky Survey MPS 240877
2006 11 19.26579 03 08 26.01 +02 53 10.2 18.7 V 703 – Catalina Sky Survey MPS 240877
2006 11 19.27238 03 08 25.76 +02 53 10.4 19.6 V 703 – Catalina Sky Survey MPS 240877
2006 11 19.27902 03 08 25.36 +02 53 09.2 19.9 V 703 – Catalina Sky Survey MPS 240877
2006 11 19.28565 03 08 25.00 +02 53 08.6 19.3 V 703 – Catalina Sky Survey MPS 240877
2007 10 14.48027 09 22 51.38 +14 18 25.7 20.9 V G96 – Mt. Lemmon Survey MPS 240877
2007 10 14.48979 09 22 52.21 +14 18 23.1 21.2 V G96 – Mt. Lemmon Survey MPS 240877
2007 10 14.49948 09 22 52.96 +14 18 20.8 21.4 V G96 – Mt. Lemmon Survey MPS 240877
2007 10 14.50910 09 22 53.68 +14 18 18.5 21.7 V G96 – Mt. Lemmon Survey MPS 240877
2007 12 05.45662 10 17 46.96 +11 39 47.6 20.5 V G96 – Mt. Lemmon Survey MPS 240877
2007 12 05.46219 10 17 47.18 +11 39 47.4 20.5 V G96 – Mt. Lemmon Survey MPS 240877
2007 12 05.46779 10 17 47.40 +11 39 47.0 20.7 V G96 – Mt. Lemmon Survey MPS 240877
2007 12 05.47337 10 17 47.65 +11 39 46.9 20.5 V G96 – Mt. Lemmon Survey MPS 240877
2008 01 30.40804 10 20 32.10 +15 07 42.3 20.3 V 703 – Catalina Sky Survey MPS 239647
2008 01 30.41455 10 20 31.88 +15 07 43.7 19.4 V 703 – Catalina Sky Survey MPS 239647
2008 01 30.42103 10 20 31.63 +15 07 48.5 19.6 V 703 – Catalina Sky Survey MPS 239647
2008 01 30.42749 10 20 31.48 +15 07 51.0 19.3 V 703 – Catalina Sky Survey MPS 239647
2008 02 06.28009 10 16 06.49 +16 01 29.4 19.7 V 703 – Catalina Sky Survey MPS 237755
2008 02 06.28711 10 16 06.20 +16 01 33.2 19.3 V 703 – Catalina Sky Survey MPS 237755
2008 02 06.29410 10 16 05.95 +16 01 35.9 19.3 V 703 – Catalina Sky Survey MPS 237755
2008 02 06.30110 10 16 05.55 +16 01 39.7 19.4 V 703 – Catalina Sky Survey MPS 237755
2008 02 11.22361 10 12 32.00 +16 40 56.7   691 – Steward Observatory, Kitt Peak-Spacewatch MPS 237755
2008 02 11.24127 10 12 31.18 +16 41 05.3   691 – Steward Observatory, Kitt Peak-Spacewatch MPS 237755
2008 02 11.26239 10 12 30.20 +16 41 15.5   691 – Steward Observatory, Kitt Peak-Spacewatch MPS 237755
2008 02 12.29273 10 11 43.75 +16 49 28.5 19.2   704 – Lincoln Laboratory ETS, New Mexico MPS 239180
2008 02 12.30498 10 11 43.13 +16 49 34.2 19.5   704 – Lincoln Laboratory ETS, New Mexico MPS 239180
2008 02 12.31728 10 11 42.55 +16 49 39.5 19.3   704 – Lincoln Laboratory ETS, New Mexico MPS 239180
2008 02 12.32949 10 11 41.99 +16 49 45.1 19.3   704 – Lincoln Laboratory ETS, New Mexico MPS 239180
2008 02 12.34170 10 11 41.33 +16 49 51.2 19.8   704 – Lincoln Laboratory ETS, New Mexico MPS 239180
2008 02 13.21906 10 11 01.60 +16 56 47.4 19.1 r 699 – Lowell Observatory-LONEOS MPS 239647
2008 02 13.24467 10 11 00.42 +16 56 58.5 19.4 r 699 – Lowell Observatory-LONEOS MPS 239647
2008 02 13.27026 10 10 59.21 +16 57 11.5 19.1 r 699 – Lowell Observatory-LONEOS MPS 239647
2008 02 13.29586 10 10 57.97 +16 57 24.0 19.2 r 699 – Lowell Observatory-LONEOS MPS 239647
2008 02 27.25844 10 00 11.12 +18 41 09.6 19.4 V 703 – Catalina Sky Survey MPS 239647
2008 02 27.26391 10 00 10.76 +18 41 12.0 19.5 V 703 – Catalina Sky Survey MPS 239647
2008 02 27.26936 10 00 10.51 +18 41 15.3 19.1 V 703 – Catalina Sky Survey MPS 239647
2008 02 27.27480 10 00 10.33 +18 41 16.2 19.4 V 703 – Catalina Sky Survey MPS 239647
2008 03 07.22505 09 53 53.39 +19 35 53.3 19.1   704 – Lincoln Laboratory ETS, New Mexico MPS 243599
2008 03 07.24739 09 53 52.14 +19 36 01.7 20.4   704 – Lincoln Laboratory ETS, New Mexico MPS 243599
2008 03 07.25864 09 53 51.74 +19 36 05.0 20.4   704 – Lincoln Laboratory ETS, New Mexico MPS 243599
2008 03 07.26980 09 53 51.20 +19 36 08.5 19.8   704 – Lincoln Laboratory ETS, New Mexico MPS 243599
2008 03 11.15037 09 51 29.30 +19 55 48.9 19.7 V 703 – Catalina Sky Survey MPS 242268
2008 03 11.15708 09 51 29.05 +19 55 50.8 19.7 V 703 – Catalina Sky Survey MPS 242268
2008 03 11.16375 09 51 28.90 +19 55 52.2 19.3 V 703 – Catalina Sky Survey MPS 242268
2008 03 11.17042 09 51 28.65 +19 55 55.4 19.7 V 703 – Catalina Sky Survey MPS 242268
2009 06 24.18629 15 45 30.84 -07 56 24.2   691 – Steward Observatory, Kitt Peak-Spacewatch MPS 289024
2009 06 24.20490 15 45 30.30 -07 56 27.2   691 – Steward Observatory, Kitt Peak-Spacewatch MPS 289024
2009 06 24.22352 15 45 29.73 -07 56 29.7   691 – Steward Observatory, Kitt Peak-Spacewatch MPS 289024
2010 07 05.41707 21 31 51.86 -15 23 08.4 20.6 V 691 – Steward Observatory, Kitt Peak-Spacewatch MPS 337410
2010 07 05.43484 21 31 51.41 -15 23 13.1 20.6 V 691 – Steward Observatory, Kitt Peak-Spacewatch MPS 337410
2010 07 05.45260 21 31 50.99 -15 23 17.5 20.6 V 691 – Steward Observatory, Kitt Peak-Spacewatch MPS 337410
2011 09 24.48146 02 33 31.932 +00 59 39.63 20.7 w F51 – Pan-STARRS 1, Haleakala MPS 392732
2011 09 24.49611 02 33 31.590 +00 59 34.74 20.6 w F51 – Pan-STARRS 1, Haleakala MPS 392732
2011 09 24.52521 02 33 30.912 +00 59 25.28 20.7 w F51 – Pan-STARRS 1, Haleakala MPS 392732
2011 10 17.50597 02 20 23.376 -01 08 28.76 19.8 i F51 – Pan-STARRS 1, Haleakala MPS 395092
2011 10 17.51807 02 20 22.825 -01 08 32.52 19.8 i F51 – Pan-STARRS 1, Haleakala MPS 395092
2013 01 05.42920 08 56 43.22 +16 22 24.2 19.5 V G96 – Mt. Lemmon Survey MPS 450857
2013 01 05.43603 08 56 42.97 +16 22 26.6 19.6 V G96 – Mt. Lemmon Survey MPS 450857
2013 01 05.44340 08 56 42.72 +16 22 28.9 19.5 V G96 – Mt. Lemmon Survey MPS 450857
2013 01 05.45027 08 56 42.46 +16 22 31.5 19.5 V G96 – Mt. Lemmon Survey MPS 450857
